"Pseudo-MPEC" for P11l6d7

Created 2021 Sep 20 17:07:10 UT using Find_Orb

Click here for an explanation of pseudo-MPECs

 
 Astrometry: 
     P11l6d7  C2021 08 09E'cY:]no7PC[^O\aogru;EPc_uWDUdi7'H+?pVwk_Mkuh``5W_?tF51
     P11l6d7  C2021 08 09D:RBJp1aR3Fq]M]wBJ/qlJ4,9EkYtis1Cvv^Nc*yF*L^(DZ,TRSXF51
     P11l6d7  C2021 08 09@_Ke+*_tXe,U\nDFRDF]J*?oe%#=25]r`#EQW[7fQtZvtgt@JDKCF51
     P11l6d7  C2021 09 079jp-5+Dal7oHR-4)[I%U6Su:x7kj9bQ(mOiAstrometry_P-PFWxF51
     P11l6d7  C2021 09 07xg\y6;TLo)fm*#^NpynUB-_*8`a68%redacted;WtXm6fs+o9RSpF51
     P11l6d7  C2021 09 076\Ak@_ql1F^qau/@,^xTtMY4A1A7!#XlsRQkoxVo\'11jQrN*LHyF51
     P11l6d7  C2021 09 07[6@F22Hij:cwF.Fxdclick;4E5XrDtdwVUrg*$VNssK?'qqEg_jGF51
     P11l6d7  C2021 09 13_Z%1xu/r:-(oY_6=cFk\@qUGBmcf]1%qj7ofBa$O@ce]'1)cQsSBF51
     P11l6d7  C2021 09 13yF,e]=kU-\$s\SD%(BGIY+gd+`='_c3%!*JVl,4?B5s@nU_j#a:\F51
     P11l6d7  C2021 09 13F'F+Ad2'_(*/8voMhereli2dDqTG2H]X)^cJHP+)Pj24JeIQ';GJF51
     P11l6d7  C2021 09 13N1ny@p2hSDrkbBm8MwB/Vr3Au?7fLeRurEP`Ru2D7U7O\4KTw'e#F51
     P11l6d7  C2021 09 13*Y9J`X[vtZ'[2VGVmHv9for\Gm4(Ny+P]?i-%!0:Q*tX?,4g=[CeF51
     P11l6d7 |C2021 09 14W6!X^5a2hFbKe+3D,C^]'2p!?^B6@?UQVV0:FKhKh:ks'5YJtp+,807
     P11l6d7 |C2021 09 14f`%K(oEJvX[`L'1explanation,o]tcNGj=ZnkPTRq:Wvw'AyQ=1807
     P11l6d7 |C2021 09 142X79CCcq.qx?q(sIyh[Oebp9hOFfsic\JZ=2x48P-d2[3fIH;402807
     P11l6d7 |C2021 09 16R$T[*!#Cd:GxWZvEL,6lg$X6Lt$]`0;:kEnF70p9.'s^LyYj1FnC807
     P11l6d7 |C2021 09 167t=;WWLKKq?rN1\DJELw]RPe@gfhd#c(rt9RGe$r^vFo2EsWKp;#807
     P11l6d7 |C2021 09 16GqiA8/0fs^^mx7n=og!EgKW2D5]o*a!*7mmGIYt.qB`b6#WWXE)Z807

Station data:
(807) Cerro Tololo Observatory, La Serena  (S30.169136 W70.805900)  Chile.
(F51) Pan-STARRS 1, Haleakala  (N20.707235 W156.255910)  US/Hawaii.
   Observers N. Primak, A. Schultz, S. Watters, J. Thiel, T. Goggia. Measurer
   PS1 Science Consortium. 1.8-m Ritchey-Chrétien + CCD.

Orbital elements:  P11l6d7
   Perihelion 2022 Jan 11.279675 +/- 0.119738 TT =  6:42:43 (JD 2459590.779675)
Epoch 2021 Sep 16.0 TT = JDT 2459473.5   Ju: 0.9040           AutoNEOCP
M 359.92544595 +/- 0.0981135        (J2000 ecliptic)
n   0.00063569 +/- 0.000587629      Peri.  192.88689 +/- 0.0444248
a 133.958542 +/- 83.8208            Node   168.79221 +/- 0.0289732
e   0.9699554 +/- 0.0184285         Incl.  103.16750 +/- 0.2148606
P1550.44                   H 16.9   G  0.15   U  7.7  
q 4.02472039 +/- 0.00611242    Q 263.892364 +/- 53.0027
From 18 observations 2021 Aug. 9-Sept. 16; mean residual 0".14
Residuals in arcseconds: 
210809 F51  .24+  .05-    210907 F51  .22+  .15+    210914 807  .02-  .02+    
210809 F51  .04-  .19+    210913 F51  .01+  .09+    210914 807  .08-  .06-    
210809 F51  .18-  .15-    210913 F51  .02-  .04-    210914 807  .01+  .17+    
210907 F51  .26+  .02-    210913 F51  .05-  .02+    210916 807  .06+  .10+    
210907 F51  .24-  .23-    210913 F51  .06-  .05-    210916 807  .11-  .04+    
210907 F51  .26-  .05+    210913 F51  .10+  .10+    210916 807  .17+  .32-    

Ephemerides (geocentric):
Date (UTC) HH   RA              Dec         delta   r     elong  mag " sig PA
---- -- -- --  -------------   -----------  ------ ------ -----  --- ---- ---
2021 09 20 17  23 02 57.273   +02 18 37.49  3.1490 4.1350 167.5 22.8 .968  64
2021 09 20 18  23 02 54.832   +02 17 47.13  3.1491 4.1349 167.4 22.8 .979  64
2021 09 20 19  23 02 52.391   +02 16 56.77  3.1491 4.1348 167.4 22.8 .990  64
2021 09 20 20  23 02 49.951   +02 16 06.41  3.1492 4.1347 167.4 22.8 1.00  64
2021 09 20 21  23 02 47.511   +02 15 16.05  3.1492 4.1347 167.3 22.8 1.01  64
2021 09 20 22  23 02 45.072   +02 14 25.68  3.1493 4.1346 167.3 22.8 1.02  64
2021 09 20 23  23 02 42.633   +02 13 35.32  3.1493 4.1345 167.2 22.8 1.03  64
2021 09 21 00  23 02 40.196   +02 12 44.95  3.1494 4.1344 167.2 22.8 1.04  63
2021 09 21 01  23 02 37.758   +02 11 54.59  3.1494 4.1343 167.2 22.8 1.06  63
2021 09 21 02  23 02 35.322   +02 11 04.22  3.1494 4.1343 167.1 22.8 1.07  63
2021 09 21 03  23 02 32.885   +02 10 13.85  3.1495 4.1342 167.1 22.8 1.08  63
2021 09 21 04  23 02 30.450   +02 09 23.49  3.1495 4.1341 167.0 22.8 1.09  63
2021 09 21 05  23 02 28.015   +02 08 33.12  3.1496 4.1340 167.0 22.8 1.10  63
2021 09 21 06  23 02 25.581   +02 07 42.75  3.1496 4.1339 167.0 22.8 1.11  63
2021 09 21 07  23 02 23.147   +02 06 52.39  3.1497 4.1339 166.9 22.8 1.12  63
2021 09 21 08  23 02 20.714   +02 06 02.02  3.1498 4.1338 166.9 22.8 1.13  63
2021 09 21 09  23 02 18.281   +02 05 11.65  3.1498 4.1337 166.8 22.8 1.15  63
2021 09 21 10  23 02 15.849   +02 04 21.28  3.1499 4.1336 166.8 22.8 1.16  63
2021 09 21 11  23 02 13.418   +02 03 30.92  3.1499 4.1335 166.8 22.8 1.17  63
2021 09 21 12  23 02 10.988   +02 02 40.55  3.1500 4.1335 166.7 22.8 1.18  63
2021 09 21 13  23 02 08.558   +02 01 50.18  3.1500 4.1334 166.7 22.8 1.19  63
2021 09 21 14  23 02 06.128   +02 00 59.82  3.1501 4.1333 166.6 22.8 1.21  63
2021 09 21 15  23 02 03.699   +02 00 09.45  3.1501 4.1332 166.6 22.8 1.22  63
2021 09 21 16  23 02 01.271   +01 59 19.08  3.1502 4.1332 166.6 22.8 1.23  63
2021 09 21 17  23 01 58.844   +01 58 28.71  3.1503 4.1331 166.5 22.8 1.24  62
2021 09 21 18  23 01 56.417   +01 57 38.35  3.1503 4.1330 166.5 22.8 1.25  62
2021 09 21 19  23 01 53.990   +01 56 47.98  3.1504 4.1329 166.4 22.8 1.27  62
2021 09 21 20  23 01 51.565   +01 55 57.62  3.1504 4.1328 166.4 22.8 1.28  62
2021 09 21 21  23 01 49.140   +01 55 07.25  3.1505 4.1328 166.3 22.8 1.29  62
2021 09 21 22  23 01 46.715   +01 54 16.89  3.1506 4.1327 166.3 22.8 1.30  62
2021 09 21 23  23 01 44.292   +01 53 26.52  3.1506 4.1326 166.3 22.8 1.32  62
2021 09 22 00  23 01 41.869   +01 52 36.16  3.1507 4.1325 166.2 22.8 1.33  62
2021 09 22 01  23 01 39.446   +01 51 45.79  3.1508 4.1324 166.2 22.8 1.34  62
2021 09 22 02  23 01 37.024   +01 50 55.43  3.1508 4.1324 166.1 22.8 1.35  62
2021 09 22 03  23 01 34.603   +01 50 05.07  3.1509 4.1323 166.1 22.8 1.37  62
2021 09 22 04  23 01 32.183   +01 49 14.71  3.1510 4.1322 166.1 22.8 1.38  62
2021 09 22 05  23 01 29.763   +01 48 24.35  3.1510 4.1321 166.0 22.8 1.39  62
2021 09 22 06  23 01 27.344   +01 47 33.99  3.1511 4.1320 166.0 22.8 1.40  62
2021 09 22 07  23 01 24.925   +01 46 43.63  3.1512 4.1320 165.9 22.8 1.42  62
2021 09 22 08  23 01 22.508   +01 45 53.27  3.1512 4.1319 165.9 22.8 1.43  62
2021 09 22 09  23 01 20.090   +01 45 02.91  3.1513 4.1318 165.8 22.8 1.44  62
2021 09 22 10  23 01 17.674   +01 44 12.56  3.1514 4.1317 165.8 22.8 1.46  62
2021 09 22 11  23 01 15.258   +01 43 22.20  3.1515 4.1316 165.8 22.8 1.47  62
2021 09 22 12  23 01 12.843   +01 42 31.85  3.1515 4.1316 165.7 22.8 1.48  62
2021 09 22 13  23 01 10.429   +01 41 41.50  3.1516 4.1315 165.7 22.8 1.50  62
2021 09 22 14  23 01 08.015   +01 40 51.14  3.1517 4.1314 165.6 22.8 1.51  61
2021 09 22 15  23 01 05.602   +01 40 00.79  3.1518 4.1313 165.6 22.8 1.52  61
2021 09 22 16  23 01 03.189   +01 39 10.44  3.1518 4.1313 165.5 22.8 1.54  61